Theta_e
311 311 311 308 302 300 301 300 300 300 300 301 301 301 301 302 302 302 302 302 303 303 303 303 304 304 305 306 306 307 309 309 311 314 317 320 317 318 317 317 318 319 323 331 336 338 344 347 347 347 347 349 351 355 354 354 352 346 355 355 343 344 349 350 352 354 351 350 348 343 346 349 350 352 350 352 352 353 353 353 354 353 354 354 355 355 356 356
311 311 309 305 300 300 300 299 300 300 300 300 300 301 301 301 301 302 302 302 303 302 303 303 304 305 306 306 306 308 308 311 317 320 322 319 320 320 318 317 317 319 326 337 342 340 346 349 349 346 345 347 349 351 351 353 349 347 360 353 343 348 349 347 349 350 348 348 346 344 348 348 350 352 350 354 355 353 354 355 355 355 355 355 355 356 356 356
311 308 304 301 300 301 300 300 300 299 300 300 300 301 300 301 301 301 302 302 302 302 302 303 304 305 305 306 307 307 312 319 324 326 325 322 328 325 319 319 317 320 326 337 341 338 340 345 347 345 344 346 347 349 350 351 349 348 357 353 347 348 346 344 344 346 346 346 346 344 346 347 348 350 350 354 355 354 355 356 356 357 357 355 355 355 355 355
309 306 305 304 301 300 300 300 300 300 300 300 300 300 300 301 301 301 302 302 302 302 302 303 305 305 305 306 307 308 317 325 324 319 325 326 330 326 319 318 317 322 327 331 335 338 339 340 342 343 343 346 345 347 350 349 347 346 349 349 347 345 344 344 341 344 346 346 344 342 345 346 345 346 350 354 354 355 355 355 355 357 357 356 355 355 355 355
309 307 307 304 300 300 300 300 300 300 300 300 300 300 301 301 301 302 301 302 302 302 303 304 305 305 306 307 308 313 320 323 317 322 326 324 328 324 317 318 318 321 327 329 333 338 340 338 339 341 342 346 345 347 350 348 345 344 344 345 344 343 344 344 341 343 345 345 342 340 343 344 342 344 348 352 352 355 355 353 353 354 354 355 356 356 356 355
308 306 304 301 301 301 300 300 301 300 300 300 300 300 301 301 301 301 301 302 302 302 303 304 305 306 306 308 312 318 320 314 317 324 323 324 325 323 318 319 318 320 327 331 332 333 332 332 334 339 342 345 346 347 348 344 342 342 340 340 342 343 342 341 341 342 344 345 340 338 340 339 340 342 347 349 349 351 353 352 352 353 353 354 356 356 355 355
306 305 303 302 302 301 301 301 300 300 301 300 300 301 301 301 301 301 302 302 302 302 303 304 305 306 306 313 321 324 326 318 317 320 321 323 322 324 323 320 320 322 329 333 332 332 329 328 329 333 339 343 344 345 344 340 338 338 337 336 338 341 341 341 343 343 344 345 340 337 338 337 338 341 344 347 349 351 351 351 352 352 353 354 355 355 354 355
306 305 303 302 302 302 302 301 301 301 301 301 301 301 301 301 301 302 302 302 303 303 304 305 306 307 308 316 325 326 326 324 318 319 320 319 320 325 325 324 326 327 332 333 331 333 331 329 328 329 336 340 340 339 339 337 335 336 335 334 336 340 341 340 343 344 344 344 340 337 337 336 336 338 342 348 352 352 351 351 352 352 353 354 354 355 355 355
308 307 303 303 303 302 302 302 302 301 301 301 301 301 302 302 302 302 302 302 303 303 305 306 307 309 312 320 327 319 319 321 317 320 319 318 319 322 323 324 328 329 332 331 330 331 331 331 330 331 335 338 338 335 335 332 332 334 333 334 334 339 341 340 343 344 344 341 338 338 338 338 340 345 349 351 353 351 350 351 352 353 353 354 354 354 355 355
308 306 304 304 304 303 303 303 302 302 302 302 301 302 302 302 302 302 303 303 304 304 306 307 308 311 315 324 329 318 317 317 318 323 322 322 320 320 323 322 324 329 331 331 331 331 331 332 332 332 334 335 336 335 334 332 331 331 331 331 330 333 336 340 344 344 343 340 338 341 339 338 345 354 355 352 352 350 351 352 352 354 354 354 354 354 355 355
305 304 305 305 305 304 304 303 303 303 302 302 302 303 302 303 303 303 303 303 305 306 307 308 309 312 317 327 327 317 318 317 321 325 322 324 323 321 323 322 323 326 329 332 332 332 331 332 333 333 331 333 335 334 334 332 330 329 329 329 328 329 329 337 344 343 343 342 340 342 338 338 347 354 355 352 351 350 351 352 352 353 354 354 354 354 355 355
305 304 305 305 305 305 304 304 304 304 303 303 302 303 303 303 303 303 304 305 306 308 308 310 312 315 322 329 326 317 317 320 321 320 317 321 325 324 322 323 323 323 326 330 331 332 332 332 333 333 332 332 332 332 331 329 327 326 327 327 329 329 328 333 343 342 342 343 340 338 335 337 350 354 353 352 350 351 351 352 353 353 353 354 354 354 355 354
307 305 305 305 305 305 305 305 304 304 304 303 303 303 304 304 304 305 306 308 309 309 309 311 314 318 326 331 323 316 316 318 318 317 316 318 324 326 324 323 323 323 324 326 329 329 330 333 333 333 332 329 329 329 328 326 325 326 326 327 328 327 327 331 339 342 343 342 338 338 332 333 349 353 352 353 351 352 352 352 352 352 352 352 353 353 354 353
307 305 305 305 305 305 305 305 304 305 305 304 304 304 304 305 306 307 310 311 311 311 312 314 318 321 331 332 319 315 316 317 316 318 318 317 320 324 325 325 325 325 325 325 325 325 328 332 331 331 330 328 328 326 325 325 324 327 325 326 327 321 323 331 337 342 343 341 339 341 332 334 349 352 352 352 351 353 353 353 353 352 353 352 352 352 353 353
306 305 305 305 305 305 305 305 305 305 305 305 304 304 306 307 309 312 314 313 313 314 316 319 321 326 335 329 319 318 321 325 324 321 321 319 319 322 325 328 329 327 327 327 325 326 328 328 329 329 328 327 326 325 326 326 326 327 321 320 325 319 322 332 337 343 344 341 342 344 334 337 349 352 352 352 351 353 353 353 353 352 352 352 352 352 352 352
306 305 305 304 304 305 305 305 305 305 306 304 304 307 308 310 315 317 316 315 314 314 318 322 321 328 334 325 321 323 325 331 331 327 325 322 320 321 323 327 329 328 327 327 327 327 326 326 328 328 328 327 326 326 325 323 323 328 322 315 319 319 321 328 335 342 342 341 344 344 340 341 348 351 351 351 351 352 352 353 353 352 352 352 351 352 352 351
305 305 305 304 304 304 304 305 305 305 305 304 307 309 310 317 320 318 316 315 315 315 319 324 323 327 331 322 323 324 324 328 328 328 329 325 322 321 322 325 326 324 325 325 325 325 324 325 328 328 329 326 326 326 321 316 316 322 323 318 318 320 319 322 332 339 340 343 344 345 346 343 345 349 350 351 350 351 352 352 352 352 352 351 351 351 351 351
305 305 305 304 304 304 304 304 305 305 305 306 309 310 315 323 322 319 318 318 321 320 321 325 324 326 327 326 326 325 325 326 326 328 329 327 324 321 322 323 324 324 324 324 323 324 323 325 327 328 329 327 327 325 317 315 316 317 318 317 318 320 320 321 328 338 341 344 344 344 346 344 345 348 349 349 350 349 351 351 351 351 351 350 351 351 351 350
305 305 305 304 303 303 303 304 305 305 305 308 309 311 319 324 322 323 322 323 330 329 327 330 326 322 321 327 326 324 326 327 327 329 328 328 324 322 323 323 324 324 324 324 324 323 324 325 326 324 325 326 328 325 320 321 322 321 321 319 317 317 319 324 329 337 342 343 344 344 344 343 343 345 347 348 348 348 349 350 350 350 350 350 351 351 351 350
305 305 305 305 304 304 303 304 305 305 306 308 308 313 319 319 320 322 322 325 329 326 324 327 326 323 322 324 323 324 326 328 328 329 328 327 324 322 323 322 323 323 323 323 323 323 325 324 323 322 323 326 326 325 325 325 325 325 324 321 320 317 318 325 331 336 341 340 340 344 346 344 341 342 346 347 347 347 347 348 350 350 348 349 351 351 351 350
305 305 305 305 304 303 303 304 304 305 307 307 308 312 316 316 315 314 315 318 319 319 320 321 323 323 323 323 322 324 326 328 329 327 327 327 324 323 323 323 323 323 323 323 323 324 324 322 322 323 325 326 326 326 325 326 325 325 323 320 319 319 319 325 330 335 340 338 337 342 345 343 342 340 343 346 345 346 347 347 348 349 348 349 351 351 350 348
305 305 305 304 304 303 303 303 304 306 307 307 308 310 311 314 314 312 312 313 313 315 317 317 318 319 320 321 322 323 325 327 328 327 327 326 324 323 323 323 323 323 323 323 323 324 322 321 323 324 325 325 325 326 325 325 326 324 323 319 316 319 322 325 329 335 339 337 336 341 342 342 344 340 340 344 345 344 345 345 346 348 348 349 350 350 349 348
305 305 304 304 304 303 303 303 305 307 306 307 309 310 310 312 312 313 314 313 313 313 313 314 315 315 316 317 318 320 323 325 325 326 326 325 324 323 323 322 322 322 322 324 324 321 319 321 324 325 324 324 324 324 325 324 324 324 322 317 315 320 321 318 325 334 339 338 339 341 340 341 345 343 341 341 342 343 343 344 344 346 347 347 349 349 348 348
304 304 304 304 303 303 303 302 306 308 305 307 310 311 309 310 311 312 313 314 314 313 313 314 314 314 315 315 315 317 320 321 322 324 325 324 324 322 322 322 322 322 322 324 325 322 321 323 324 325 323 325 324 324 325 322 320 322 323 319 316 321 322 320 326 333 337 338 341 340 332 335 344 345 344 341 340 341 341 343 343 344 346 345 347 348 347 348
304 304 304 304 303 303 302 304 307 305 304 309 311 309 308 310 311 312 313 315 316 314 314 314 314 315 315 315 315 316 316 318 320 322 324 324 323 322 323 322 321 322 322 324 325 325 324 325 324 324 323 324 323 323 324 321 318 318 322 324 322 324 325 325 327 326 326 327 337 338 323 328 345 346 345 345 342 342 341 342 342 344 345 344 346 347 347 347
304 304 304 303 303 302 303 306 305 303 306 311 310 308 308 309 311 312 312 316 318 317 316 316 316 317 316 315 315 316 315 316 318 320 322 324 324 324 324 323 323 323 323 325 326 325 325 326 324 323 323 323 323 322 323 323 317 313 320 325 326 326 325 326 325 320 319 323 336 338 325 326 337 341 347 347 344 346 342 341 341 342 345 343 344 346 346 347
304 304 303 303 303 303 305 306 303 304 309 310 308 307 308 309 311 311 314 319 322 319 317 317 316 317 317 316 315 315 315 315 317 318 320 323 324 325 325 325 324 323 324 325 322 323 327 326 325 324 323 323 321 320 323 324 317 314 322 325 325 327 324 325 323 318 322 327 331 336 331 325 326 334 346 348 345 348 346 342 341 341 344 344 343 344 345 346
304 303 303 303 303 303 304 305 304 306 308 307 307 307 308 310 311 314 317 321 324 322 319 316 316 317 316 316 315 316 318 318 318 318 319 321 323 325 325 325 324 324 326 324 318 322 327 326 325 325 323 321 320 321 323 323 319 318 324 325 324 326 325 327 323 318 322 321 318 327 330 326 327 337 346 349 344 346 349 346 343 342 342 343 343 342 344 345
304 303 303 303 302 303 304 304 304 307 306 307 307 307 310 311 311 316 321 321 322 321 322 318 319 318 315 315 315 316 318 319 319 319 319 320 322 324 324 324 324 324 326 324 321 324 326 326 326 325 324 322 321 323 323 321 321 321 323 324 323 324 325 326 323 318 319 317 314 322 325 324 328 336 340 344 341 343 349 347 345 344 342 343 343 342 343 345
303 303 303 303 303 304 304 304 305 306 306 307 306 309 313 312 314 318 320 321 320 320 322 320 321 318 315 315 315 315 317 318 320 320 319 320 322 323 323 324 324 324 325 325 324 325 325 327 327 326 325 324 323 323 323 321 321 322 323 322 321 322 324 325 326 321 315 316 318 322 324 323 325 331 336 340 342 344 348 348 346 347 344 343 343 341 342 344
303 303 303 303 304 304 305 306 305 305 305 305 307 313 314 314 317 320 320 319 318 321 322 322 321 318 315 316 315 315 315 317 319 320 320 320 322 322 322 323 323 323 322 322 323 325 325 325 327 326 326 325 325 322 322 322 322 322 322 320 316 316 317 316 318 319 313 316 324 325 326 323 320 328 340 343 346 347 346 347 347 347 346 344 343 341 342 343
303 303 303 303 303 305 306 307 303 304 305 306 310 315 314 315 316 316 318 317 317 322 322 321 322 318 316 317 317 316 315 316 318 319 321 320 321 322 321 322 322 319 316 316 318 321 323 325 325 326 327 327 325 322 322 321 321 321 319 317 311 309 312 311 312 316 315 320 331 329 325 323 320 331 344 345 346 346 345 347 346 346 347 346 344 343 342 342
303 303 303 303 304 305 306 305 304 305 306 309 312 316 316 318 317 313 315 315 316 320 318 317 318 317 318 317 317 317 316 316 317 319 321 320 321 321 320 322 323 319 317 316 315 315 318 324 325 325 326 326 325 321 317 317 319 319 315 313 311 309 311 312 313 317 317 321 328 329 327 324 322 334 346 345 344 345 345 345 344 345 346 347 346 344 343 343
303 303 303 302 304 305 305 305 307 307 308 310 315 317 315 316 318 315 313 314 315 316 316 316 315 315 317 318 318 318 316 317 318 318 320 320 319 319 319 321 322 321 323 319 315 314 314 318 324 324 323 326 326 323 320 320 320 319 319 318 313 311 312 313 314 316 318 321 322 324 329 325 323 337 348 343 342 344 344 345 344 345 346 347 346 345 344 344
303 303 303 304 304 304 306 308 309 309 309 312 316 319 314 312 315 315 314 314 314 315 315 315 315 315 316 318 321 320 317 317 318 318 320 319 317 318 319 319 321 322 322 317 315 316 312 315 325 325 325 326 326 325 325 322 318 319 322 318 312 316 318 315 318 321 321 320 319 320 327 333 337 347 349 341 342 344 344 346 345 345 346 347 347 346 345 345
304 304 304 305 305 305 307 308 309 311 311 314 318 319 313 311 313 313 314 315 314 314 314 314 316 315 315 318 320 322 320 319 320 318 319 320 318 319 319 320 321 322 321 318 317 317 312 314 325 325 326 327 325 327 326 321 320 321 317 313 316 324 321 314 315 320 316 315 319 319 321 330 336 341 345 342 343 344 345 346 346 346 347 347 348 348 346 347
305 306 306 306 306 307 308 306 308 311 312 315 318 317 312 312 313 312 314 315 314 313 313 314 316 314 313 315 316 320 320 319 320 317 317 319 319 319 321 320 320 321 322 320 320 321 317 315 324 325 324 326 326 326 326 325 326 321 313 314 321 325 323 319 315 314 312 313 318 317 315 321 324 332 348 347 341 344 345 346 346 346 348 347 348 348 346 347
306 306 306 306 307 307 306 304 307 311 314 316 317 318 316 315 314 313 314 314 313 313 313 313 315 314 314 313 313 317 316 316 319 317 317 319 318 320 322 321 321 321 322 321 321 325 321 315 321 327 324 325 328 325 323 325 326 322 319 321 322 315 313 316 316 314 312 313 315 316 318 322 322 332 348 344 340 345 343 344 347 345 347 348 346 348 347 347
305 305 305 306 306 305 304 305 308 312 315 317 317 318 317 315 315 314 314 314 314 313 313 313 314 315 315 314 314 316 315 314 316 316 317 319 319 321 322 322 322 321 322 322 322 325 324 316 316 325 326 324 327 324 318 320 324 325 324 323 324 318 312 313 316 316 315 316 317 315 316 322 332 346 351 342 342 345 341 343 346 344 346 346 345 347 347 347
305 305 306 305 305 304 304 306 309 314 316 317 317 317 316 315 315 315 315 316 316 315 315 314 315 315 315 315 315 315 315 315 315 314 315 318 320 321 323 323 322 322 321 322 322 323 325 318 313 322 328 321 320 323 320 319 322 321 319 317 317 318 316 315 316 317 319 321 322 317 314 323 345 360 354 347 342 341 341 343 344 344 345 345 346 347 347 347
305 305 306 304 304 304 305 307 310 314 315 316 316 316 316 316 316 316 316 316 315 315 315 315 315 315 315 316 316 316 316 316 315 315 313 316 317 319 323 324 323 323 322 323 323 321 321 320 315 316 318 316 318 326 326 324 325 322 319 318 316 316 316 313 314 318 317 318 324 324 317 325 352 358 351 351 344 339 341 340 341 345 345 344 347 346 346 348
305 305 305 304 304 304 306 307 309 310 311 313 315 315 316 317 316 316 315 314 314 314 313 313 314 315 315 316 316 316 317 317 316 315 315 314 316 317 322 324 324 323 322 322 322 323 324 323 317 313 316 319 324 328 326 324 326 325 323 323 321 320 316 310 315 322 316 312 322 324 316 328 362 366 355 352 345 338 340 340 340 343 345 346 346 346 347 347
304 305 304 304 304 305 307 309 310 310 309 310 311 313 315 317 316 315 313 313 313 312 312 312 313 314 315 316 317 317 317 317 316 316 317 316 316 317 318 320 322 323 324 322 322 326 328 323 316 314 318 321 325 328 328 326 326 322 322 324 322 320 318 316 326 332 321 313 316 316 312 325 356 367 364 363 351 340 338 340 340 342 346 347 346 346 348 348
304 304 304 304 305 305 308 310 310 310 310 310 310 311 312 313 314 315 314 313 312 312 312 312 312 313 314 314 316 317 316 317 317 317 317 317 317 317 317 321 320 320 322 323 323 324 322 320 319 315 314 317 319 320 321 322 323 321 322 324 322 323 321 319 326 328 319 315 316 312 310 323 348 353 355 362 357 348 346 343 341 343 345 347 347 347 349 348
304 304 304 304 304 305 307 308 309 308 309 309 309 309 309 310 311 311 311 311 311 312 313 313 313 314 314 315 315 316 317 318 320 320 319 319 319 319 319 320 319 318 323 333 337 326 320 323 322 315 313 314 314 316 321 322 321 321 323 322 322 324 320 317 317 314 314 320 320 316 317 331 352 344 332 341 342 343 351 347 341 343 344 347 349 348 349 351
304 304 305 304 305 305 305 306 307 307 307 307 309 309 308 309 309 308 309 310 311 312 312 313 314 314 315 315 315 316 316 318 319 319 319 318 318 318 317 318 318 319 328 338 337 329 322 325 323 318 316 315 316 326 339 333 319 316 319 320 321 324 321 320 315 311 320 325 318 325 334 331 335 338 329 330 330 337 353 352 345 345 343 346 350 349 350 350
304 304 305 305 306 305 305 306 306 306 307 307 308 309 309 309 309 308 309 310 310 312 312 312 313 314 314 314 314 315 315 316 317 318 317 316 316 317 316 317 319 322 330 331 327 328 326 321 322 324 320 319 325 334 338 331 320 316 319 318 320 324 321 319 313 315 330 322 309 331 352 327 325 342 336 329 334 343 355 355 349 347 343 344 349 349 350 349
305 304 304 305 306 306 306 306 306 307 307 307 308 309 309 309 308 308 309 309 310 310 311 312 312 313 314 313 314 315 315 316 317 317 316 315 315 316 317 318 319 321 325 322 320 326 326 319 320 323 321 323 326 327 328 329 326 322 321 319 319 322 320 316 316 321 331 318 310 337 358 334 331 346 339 335 347 356 359 352 346 346 345 348 352 349 349 348
304 304 304 305 305 305 305 305 306 306 306 307 308 309 308 308 309 308 308 309 309 309 310 312 312 311 312 312 313 315 315 316 316 315 314 314 314 315 317 318 319 319 320 319 320 323 325 327 330 322 319 322 324 325 327 328 327 323 322 323 321 322 321 318 320 324 326 322 322 339 353 346 344 350 343 340 353 368 369 355 346 346 350 356 358 353 348 347
304 304 304 305 305 305 305 305 305 305 306 307 308 308 308 308 308 308 308 308 309 310 310 311 311 310 310 311 313 314 313 314 315 313 313 313 313 315 316 317 318 318 317 319 321 323 324 331 338 327 318 318 322 326 326 325 326 323 322 325 322 321 322 320 321 324 323 324 328 332 336 340 346 357 356 351 360 367 359 353 354 355 358 362 361 355 350 348
304 304 304 304 305 305 305 305 305 305 306 307 307 308 307 308 308 307 308 308 308 310 310 309 310 309 309 310 311 312 311 312 313 312 312 312 312 313 315 315 316 316 318 319 321 323 324 328 334 326 316 315 319 323 323 322 324 319 319 325 324 320 321 319 322 327 325 327 331 327 324 330 340 351 350 350 361 358 345 354 362 360 364 366 358 355 353 348
304 304 304 304 305 305 305 305 305 306 306 307 307 308 307 307 307 307 309 309 308 309 309 309 310 310 310 310 311 311 311 311 311 311 311 312 312 313 314 314 315 316 318 320 320 323 325 325 327 324 318 317 319 321 321 319 318 314 316 323 325 326 325 322 324 327 325 329 329 322 324 337 345 344 339 341 352 352 352 366 367 363 373 370 357 354 354 350
Wind_Speed
22 23 22 21 24 26 26 25 24 24 24 24 24 24 24 24 24 24 25 25 25 25 26 26 26 26 24 23 23 23 24 24 25 18 14 24 33 29 25 23 20 17 14 14 14 14 11 10 13 14 10 6 5 4 6 8 5 3 2 4 5 3 4 4 6 5 4 3 2 6 13 14 12 11 10 12 13 15 12 6 8 9 9 13 19 27 29 29
23 23 22 23 27 28 27 27 26 26 26 26 25 25 25 25 25 25 26 26 25 26 26 27 26 25 24 22 21 21 22 22 20 18 21 25 26 27 28 24 21 18 15 18 20 18 12 9 11 10 7 4 4 5 5 5 6 4 2 3 6 5 5 5 7 7 7 6 3 7 13 15 15 15 12 12 13 14 12 9 11 13 12 15 21 27 27 28
24 24 24 26 28 28 28 28 28 28 28 28 27 27 26 26 27 27 27 26 26 26 27 27 26 24 23 21 19 18 18 15 10 14 19 17 13 17 21 22 22 19 17 22 22 21 16 12 13 9 5 4 4 6 5 4 4 4 4 4 8 8 6 5 8 10 10 8 6 7 11 15 16 15 11 14 16 14 13 12 13 14 16 17 18 23 26 26
24 25 25 26 29 29 29 29 29 30 30 29 29 28 28 29 28 28 28 27 27 27 28 27 25 24 22 19 17 15 11 7 5 9 12 13 8 8 17 20 21 20 19 22 22 21 19 12 12 10 5 5 5 6 7 6 3 3 5 7 10 8 5 7 9 11 10 8 8 9 11 14 14 13 13 17 15 10 13 16 18 20 20 19 17 20 25 24
25 25 26 28 30 31 30 30 31 31 31 31 31 30 30 30 30 29 29 28 28 28 28 27 25 24 21 17 13 10 5 3 4 6 8 12 6 6 16 19 20 21 20 20 18 16 16 10 9 8 5 5 6 5 9 10 6 4 6 10 13 9 6 9 10 12 11 7 9 12 13 13 12 11 16 20 15 11 14 17 20 23 22 21 20 20 21 20
25 27 29 31 32 32 32 32 33 33 32 32 32 32 32 32 31 31 30 29 29 29 28 26 24 23 19 13 6 3 1 2 8 7 4 9 8 5 13 17 18 20 22 21 15 10 10 8 7 7 6 6 7 9 9 9 8 6 8 11 14 14 10 9 9 11 12 9 10 13 11 11 11 10 16 20 14 13 17 19 21 22 23 24 23 20 18 17
27 29 30 32 33 34 34 34 34 34 34 33 33 33 33 33 33 32 31 30 29 29 27 25 24 23 16 6 1 1 1 7 19 15 8 7 6 2 11 15 16 19 23 19 11 7 6 7 8 7 6 7 8 12 12 7 9 9 9 10 13 17 14 10 9 12 14 11 10 11 10 12 13 10 14 14 10 15 18 19 21 21 24 24 20 19 18 17
30 29 31 33 35 35 35 35 36 35 35 35 35 35 35 35 34 33 32 30 30 29 26 24 23 20 11 2 1 1 1 14 26 18 14 18 12 7 13 16 18 22 23 21 14 9 6 7 10 7 7 10 8 9 10 7 9 10 10 11 10 13 14 11 8 12 14 9 8 11 12 13 13 10 12 13 14 18 19 18 20 20 21 21 19 19 18 16
29 29 33 35 35 36 36 36 36 36 37 37 37 36 36 36 35 34 32 31 30 27 25 23 22 16 6 1 1 1 7 15 19 14 14 18 16 14 16 17 21 24 22 22 19 12 7 6 10 8 7 10 8 9 8 4 5 7 7 9 8 10 13 10 9 13 13 7 9 12 10 9 9 9 8 15 20 19 20 20 21 20 20 19 18 18 17 16
29 31 35 37 37 37 37 37 37 37 38 38 38 38 37 37 36 34 33 32 29 25 23 21 18 10 2 3 2 1 10 12 11 9 11 14 16 18 18 18 22 25 18 16 17 13 9 8 8 6 7 7 6 9 8 6 5 6 7 9 9 11 10 9 13 13 9 9 12 13 9 7 10 10 6 12 21 21 21 21 21 20 19 19 17 16 16 16
32 34 37 38 38 38 38 39 39 39 39 39 39 38 38 38 37 36 34 32 28 23 21 18 13 4 3 3 3 4 10 8 4 7 13 11 17 23 23 21 22 25 18 11 15 18 16 14 8 2 5 4 4 8 8 7 6 8 8 10 13 12 9 8 16 14 8 8 12 13 10 9 10 12 12 14 20 22 23 22 21 20 17 18 18 16 13 14
33 36 37 38 38 38 39 41 41 41 41 41 40 39 39 38 37 36 34 31 26 21 19 15 7 3 3 1 8 16 13 7 8 13 17 12 15 25 27 25 22 24 21 10 12 21 22 19 10 3 6 3 4 6 6 7 6 7 6 7 13 10 8 7 16 17 11 8 10 13 8 7 9 14 19 19 19 21 22 22 21 19 17 16 17 15 12 14
32 36 37 38 38 39 41 42 42 42 42 42 42 40 39 38 37 35 33 31 24 17 14 10 5 6 3 2 12 23 21 17 22 23 21 15 15 23 26 26 24 23 23 17 15 20 23 21 12 7 8 5 5 5 6 8 6 7 5 3 8 8 7 6 12 16 12 9 14 14 5 5 10 18 22 20 20 21 20 20 19 16 15 15 15 13 13 15
33 37 38 38 40 41 42 43 43 43 43 43 42 42 40 38 35 34 32 28 18 10 8 4 7 9 3 7 14 21 24 27 29 27 24 19 18 22 24 25 24 24 24 23 20 18 22 22 14 7 7 6 6 7 8 8 4 4 6 3 4 3 7 6 10 17 11 9 15 13 4 6 12 19 21 20 22 23 20 19 18 16 15 14 13 13 14 15
35 38 39 40 41 41 43 43 44 44 43 44 44 43 39 35 34 32 27 19 9 5 5 6 10 8 1 10 17 19 17 18 24 29 26 21 19 18 22 24 24 26 25 23 22 18 19 18 10 5 6 6 6 6 7 5 3 1 2 5 3 1 7 8 10 22 14 8 10 10 4 5 13 20 20 19 21 22 20 18 18 17 16 15 13 13 14 13
36 38 40 42 42 43 44 44 45 44 43 45 44 40 36 33 29 22 14 7 4 10 8 6 11 7 2 7 12 14 9 11 18 23 21 22 22 18 22 26 23 24 25 24 23 19 15 10 5 5 6 6 5 4 4 4 4 1 2 4 5 3 6 6 5 16 16 11 8 8 6 4 11 19 20 21 21 21 19 18 19 17 17 16 12 13 14 11
36 39 42 43 43 44 45 45 46 44 45 45 40 36 32 23 13 7 3 6 7 10 9 5 7 6 5 9 10 11 8 12 15 15 16 22 27 23 19 17 14 16 18 18 19 14 9 5 3 4 5 5 5 4 3 5 5 3 1 4 5 5 6 5 2 8 15 15 9 7 8 6 13 19 19 21 22 20 18 18 19 17 15 15 12 13 14 12
38 40 43 44 45 46 46 47 45 45 46 41 35 32 24 12 6 8 14 14 11 6 4 0 3 3 5 7 8 9 6 6 11 13 15 17 26 28 18 9 7 9 8 7 9 7 4 3 3 3 4 5 5 5 5 7 6 5 5 3 5 5 6 7 3 6 14 16 11 10 9 10 17 20 19 20 21 19 19 19 18 17 16 15 13 14 14 14
39 41 43 45 46 46 47 47 44 46 43 34 32 25 11 7 6 9 13 12 7 2 2 2 5 3 5 7 9 10 8 11 14 12 15 15 19 25 18 9 6 8 6 3 5 6 4 2 3 6 6 6 6 7 9 9 7 8 7 5 6 6 5 8 4 7 14 13 11 12 10 13 19 20 19 20 20 18 18 17 16 16 16 15 14 14 15 15
39 41 43 45 46 46 48 46 45 45 35 28 32 21 5 6 4 2 2 3 4 7 8 8 9 8 11 13 13 11 14 15 10 8 16 19 16 14 11 7 5 8 7 6 5 5 6 5 7 8 7 7 7 7 9 9 8 9 7 6 8 6 8 9 5 8 14 11 9 13 13 15 20 20 20 20 18 17 17 17 16 16 15 15 16 16 17 16
39 40 42 45 46 47 48 46 46 39 25 24 27 12 2 6 5 7 9 7 10 12 15 16 14 16 16 16 21 15 11 10 8 9 15 20 17 11 7 8 7 7 6 7 6 4 6 8 10 9 8 7 7 7 7 8 10 9 8 7 8 6 9 10 5 9 14 10 8 12 13 15 18 18 19 19 18 16 18 18 17 18 17 15 17 19 18 16
39 39 43 45 45 48 46 47 44 28 20 26 21 5 3 10 14 17 13 10 11 12 15 19 17 19 20 23 32 21 5 9 14 15 12 14 14 9 7 9 8 6 5 6 6 5 7 9 11 9 8 8 7 8 8 9 10 9 7 7 7 7 8 9 7 8 12 7 7 11 12 13 17 18 18 20 20 17 19 21 19 20 18 15 17 18 18 15
39 40 43 43 46 48 46 48 36 17 24 32 18 6 10 19 26 27 13 6 12 9 13 19 18 18 19 20 28 20 8 10 12 14 12 11 12 10 10 10 9 7 6 8 8 7 6 7 10 10 8 10 10 10 10 9 8 8 8 6 8 10 5 5 7 7 11 7 9 13 9 8 12 14 17 20 20 17 19 22 20 20 20 19 20 18 18 18
39 42 42 44 48 46 47 45 25 16 35 34 13 8 20 26 29 28 12 4 10 7 12 19 16 15 19 14 13 15 12 10 10 13 13 9 10 8 9 11 10 8 9 10 11 11 7 5 9 11 10 12 12 12 11 8 6 9 11 9 10 12 7 6 7 4 7 6 7 12 6 2 7 11 14 14 15 16 18 20 18 18 19 19 20 19 19 20
40 41 42 45 45 47 50 33 14 27 42 24 7 16 29 29 29 27 10 2 7 5 8 13 9 12 18 12 12 15 11 11 12 13 10 7 10 8 6 8 7 10 12 12 11 11 10 6 9 12 12 13 12 12 12 9 6 7 12 14 14 14 9 10 10 4 3 5 4 10 6 3 6 10 14 11 11 14 15 18 18 17 17 17 17 18 18 19
41 41 43 44 43 50 43 15 14 37 33 10 11 29 33 28 31 27 7 0 6 5 3 5 5 8 12 11 10 11 6 9 13 16 13 9 12 10 6 5 4 9 13 10 6 6 9 10 9 12 13 14 13 11 12 11 6 6 9 12 15 14 10 12 12 4 3 5 5 9 8 3 4 8 14 14 14 15 14 17 19 17 16 16 16 17 17 18
41 41 44 43 43 46 28 10 24 31 13 9 23 34 33 29 32 23 3 1 5 4 5 2 3 8 10 10 14 12 4 5 8 15 18 15 12 8 7 7 5 8 8 6 6 4 8 13 12 13 13 13 12 10 12 11 8 8 7 8 12 13 12 15 13 6 5 5 5 7 6 4 5 9 13 16 17 15 14 17 18 17 18 19 18 18 19 19
40 42 43 42 43 41 21 13 23 18 11 19 28 33 34 32 27 12 2 1 4 2 4 2 3 7 7 9 17 11 4 6 8 12 20 21 15 7 8 11 8 9 8 7 8 5 8 13 15 15 12 10 9 10 12 12 10 9 6 8 10 11 12 13 11 8 6 5 6 7 4 2 4 7 9 13 16 16 15 18 19 19 21 21 20 20 20 20
41 42 42 43 45 37 20 14 19 16 17 22 27 33 34 28 16 2 3 2 2 1 1 2 3 5 7 10 15 9 4 4 3 7 15 18 16 8 6 10 10 9 10 10 9 5 6 11 15 16 12 9 9 11 13 13 11 9 7 8 10 11 11 9 8 7 5 6 8 8 8 4 5 4 7 9 11 15 15 16 17 19 20 21 20 21 20 19
41 41 41 43 43 36 27 25 23 12 16 22 29 32 25 15 3 4 3 4 1 3 1 2 1 7 11 10 10 10 6 4 2 5 11 11 13 10 4 5 8 6 7 10 10 8 7 7 9 11 11 10 9 11 13 14 14 9 7 8 9 9 8 6 4 5 4 5 8 10 13 11 6 4 9 10 14 17 15 13 14 15 18 20 19 20 20 18
40 41 41 41 40 34 23 21 20 15 19 26 28 23 12 4 2 3 6 2 2 4 2 0 1 9 14 12 8 10 9 5 2 6 8 8 10 10 4 4 6 4 5 7 9 11 10 8 6 6 9 11 10 10 12 14 16 12 6 6 6 6 5 4 3 3 5 6 7 10 14 15 9 5 8 13 17 20 18 15 16 17 17 18 18 19 19 18
39 41 42 41 38 30 18 20 27 27 26 24 20 12 3 1 2 4 4 3 2 4 1 2 1 4 9 10 7 11 11 6 5 6 8 9 9 10 10 8 7 6 7 7 6 7 8 10 9 6 7 10 10 9 9 10 13 12 7 6 6 4 4 5 5 4 6 6 6 9 13 12 10 7 10 15 16 18 19 18 19 20 19 18 18 19 18 17
40 41 41 39 37 32 29 31 32 28 23 18 11 4 3 2 5 5 5 4 2 1 4 6 10 9 5 6 4 9 11 8 9 7 8 11 10 11 13 11 9 8 6 6 6 5 4 7 10 10 8 9 10 8 7 7 9 11 9 7 7 6 6 7 6 4 4 6 6 9 10 7 6 6 11 18 19 19 20 20 21 21 20 19 19 19 18 18
40 39 39 41 38 33 29 26 22 18 15 11 4 2 2 6 4 3 6 7 7 7 7 10 15 13 7 5 5 7 7 7 9 7 7 9 9 9 12 12 13 9 4 4 6 6 6 6 8 12 8 8 12 10 8 7 8 10 8 7 7 7 6 6 5 4 4 5 5 5 7 6 5 6 11 17 18 18 19 20 20 19 19 18 19 19 19 19
38 38 40 40 34 29 23 20 16 9 5 3 2 2 6 7 1 0 3 4 6 10 11 12 9 8 6 5 6 8 8 8 9 9 7 8 9 9 10 12 14 11 6 5 4 5 9 9 7 11 9 9 11 9 8 7 6 8 6 6 7 7 5 3 4 5 4 3 4 3 4 5 5 7 12 16 16 16 18 18 17 17 18 16 16 17 17 17
37 38 37 34 28 23 18 20 16 7 7 2 2 4 7 4 1 2 3 4 4 8 14 13 5 3 4 3 5 6 9 9 8 9 6 7 10 10 10 10 13 14 10 7 4 4 7 8 7 9 10 12 12 8 9 9 6 6 7 8 5 6 6 4 4 2 2 3 6 4 3 4 3 5 8 13 15 16 16 16 17 18 19 17 15 16 17 17
33 32 30 31 24 16 17 26 17 10 9 3 4 6 4 2 3 4 7 9 6 6 9 7 4 4 4 2 4 4 3 6 9 9 6 6 7 11 13 10 13 18 13 8 4 3 5 5 7 11 12 13 13 11 10 9 8 5 7 8 3 5 5 4 2 3 4 5 5 4 6 4 2 4 5 8 14 16 15 15 18 18 18 17 16 17 18 19
28 25 24 25 16 17 27 37 19 9 8 1 7 6 2 1 5 8 9 11 9 6 5 3 3 3 3 3 4 7 9 6 3 4 6 6 4 10 15 10 12 19 17 12 6 3 5 4 6 11 14 12 10 11 11 9 10 8 6 6 5 5 5 4 4 5 6 5 4 4 6 5 5 5 5 9 15 16 16 16 17 18 17 17 17 18 19 19
20 14 12 11 12 25 40 38 16 6 5 4 7 5 3 4 6 9 10 11 10 8 5 3 3 4 4 5 7 8 8 6 5 6 4 5 4 11 16 11 11 18 19 16 9 4 5 4 5 7 11 11 7 8 9 9 9 8 6 5 4 5 6 5 5 4 5 4 4 4 5 5 5 5 7 12 15 17 17 15 15 18 19 19 18 17 17 17
11 5 7 10 18 37 44 27 6 6 5 6 5 4 4 5 6 8 10 10 8 6 5 4 6 7 7 8 10 9 7 6 7 7 5 4 5 8 14 13 11 16 20 20 14 7 4 5 5 5 6 9 7 6 10 10 8 8 7 7 5 3 3 5 4 3 5 5 4 4 5 6 5 5 9 13 15 16 16 15 15 17 20 21 19 17 16 16
7 2 7 15 30 41 34 14 0 3 4 6 5 5 7 6 7 8 10 12 9 6 7 9 10 9 9 10 10 8 7 7 7 6 5 6 7 5 7 12 13 14 17 17 15 10 5 4 5 5 6 6 6 6 11 14 12 9 8 8 8 5 4 5 5 3 2 5 5 5 5 7 6 5 8 11 12 13 15 16 15 16 19 20 18 18 18 17
4 2 13 25 35 32 17 4 1 2 2 5 5 7 8 7 9 9 9 12 11 8 8 10 10 10 9 9 9 8 8 8 8 7 5 7 10 9 6 5 9 15 15 13 15 14 8 4 5 8 8 7 8 7 10 17 17 13 11 9 8 6 5 6 5 3 1 4 5 4 4 7 6 5 7 9 10 12 15 17 15 14 16 18 19 19 18 18
2 8 21 29 28 19 7 2 4 2 2 6 8 9 9 8 9 8 8 9 8 7 7 8 9 10 9 9 10 10 9 9 10 11 11 10 12 12 8 11 9 8 13 11 13 12 8 6 6 7 7 8 9 7 6 11 15 13 11 11 9 8 6 6 5 4 3 4 4 4 6 7 6 5 6 6 8 10 11 12 14 14 14 16 18 18 17 18
4 7 14 20 21 13 3 1 4 5 6 9 9 10 10 8 8 9 9 8 6 5 7 7 8 9 8 8 9 8 8 8 8 9 10 9 9 12 8 16 18 7 6 6 10 10 7 7 7 6 6 8 9 7 6 8 11 9 9 12 13 12 9 5 3 4 3 5 6 5 7 7 6 6 6 4 5 6 8 8 10 12 12 14 16 15 16 18
5 4 5 11 16 9 1 1 5 6 9 12 11 11 11 9 9 9 9 8 7 6 6 6 7 8 7 7 8 7 7 6 4 6 10 8 9 11 12 18 17 10 11 11 5 10 10 8 8 8 10 11 9 8 8 7 6 6 7 13 17 16 14 8 4 5 6 5 6 5 5 6 6 7 11 13 9 5 6 7 8 10 11 12 13 13 15 16
4 4 4 6 7 3 2 4 5 5 9 12 10 9 11 11 10 11 10 7 5 6 7 7 8 7 6 8 8 7 7 9 7 6 8 9 7 7 12 17 14 11 17 20 12 3 8 9 12 14 13 12 9 7 5 6 7 8 8 13 16 18 17 11 5 6 6 4 5 6 6 4 8 7 12 16 16 8 5 6 7 9 10 11 13 13 14 14
2 3 4 5 4 3 4 4 5 6 8 9 7 7 10 12 10 10 8 5 6 8 7 6 7 7 8 9 8 6 8 11 10 7 6 9 9 10 14 13 8 12 17 16 13 6 4 8 15 19 16 15 13 9 7 7 10 13 11 13 17 18 17 14 10 8 7 6 8 7 7 6 10 8 10 14 15 8 7 9 9 10 10 11 13 15 14 13
2 2 4 5 4 4 6 7 9 10 9 8 6 7 10 11 9 8 8 8 10 10 7 5 6 8 12 11 7 6 8 8 8 6 7 9 11 14 15 8 4 13 17 13 11 7 3 8 13 19 19 17 16 15 14 8 8 12 14 14 16 18 18 17 14 10 10 8 8 6 8 9 9 8 9 12 10 7 9 10 9 10 12 12 12 15 15 14
3 3 4 3 2 4 7 10 12 12 10 8 5 6 8 10 10 9 7 8 10 9 8 7 7 10 12 11 7 5 6 7 6 5 6 9 12 12 11 8 4 9 15 14 12 5 2 7 9 16 18 18 17 18 18 12 7 9 13 14 15 18 20 20 16 12 12 10 8 9 11 10 8 9 10 10 8 6 7 6 4 7 10 12 11 12 15 16
2 2 3 3 3 5 7 8 9 9 9 7 5 6 6 8 10 10 8 7 9 8 6 9 11 11 10 8 6 6 7 7 7 7 8 10 10 7 6 6 8 11 13 11 9 5 3 6 8 9 13 16 18 19 19 17 11 8 10 12 14 17 18 18 15 10 9 7 6 9 11 9 7 7 8 8 7 4 3 5 6 7 8 10 11 11 13 14
4 3 2 2 4 5 5 5 6 6 6 4 4 6 7 7 9 10 9 7 9 10 9 11 13 11 8 8 8 9 10 8 9 10 9 10 9 7 6 6 10 14 13 9 8 6 3 5 7 4 8 12 16 19 21 20 13 10 11 11 11 13 14 13 12 9 8 7 7 8 8 7 7 8 7 6 6 6 5 6 7 6 6 7 10 12 13 14
4 2 2 2 4 4 4 5 5 5 4 3 4 6 8 11 10 8 7 5 6 10 14 15 12 8 7 9 11 12 12 9 9 11 10 11 11 11 11 11 14 15 11 8 8 6 4 4 6 4 5 9 13 18 19 16 12 11 11 11 9 9 8 7 8 10 11 10 9 8 8 8 8 8 8 7 7 7 8 7 6 6 8 8 9 11 12 13
Wind_Direction
354 354 354 354 358 0 357 354 352 349 347 344 342 341 339 339 338 338 337 335 336 336 334 332 330 328 327 331 332 326 322 316 310 302 268 268 271 264 260 253 249 257 248 222 194 168 171 194 213 213 207 207 203 226 226 221 218 184 182 222 241 213 205 208 190 184 175 219 259 139 128 128 128 119 117 122 129 140 146 119 98 97 99 122 134 141 147 149
352 352 353 355 358 357 354 353 351 349 347 344 342 340 338 339 337 337 335 334 335 334 334 333 329 327 327 332 332 328 323 315 308 289 274 285 285 266 256 249 241 243 231 204 185 169 168 195 203 199 199 207 210 219 226 210 198 197 162 210 234 212 210 201 186 175 163 194 196 141 135 131 132 133 137 138 144 146 132 117 113 109 112 126 136 142 147 151
351 354 355 355 356 355 352 351 349 348 346 343 341 339 339 338 336 336 334 334 333 333 334 331 329 326 326 333 333 329 322 319 307 278 288 311 302 259 236 230 230 230 216 198 192 188 185 188 186 185 193 212 230 225 233 219 197 199 162 220 243 223 224 216 185 173 174 185 165 160 144 134 141 143 146 148 151 151 139 139 135 131 137 143 144 145 149 154
352 353 351 350 353 352 351 349 348 346 344 342 341 340 339 336 335 334 333 333 332 332 332 330 329 325 327 336 331 324 322 320 281 265 308 336 318 228 197 205 216 216 208 199 200 200 198 189 179 188 196 214 233 234 238 224 200 195 180 224 245 227 225 232 202 177 178 179 161 166 147 142 153 149 150 151 150 155 155 158 151 146 150 150 148 149 155 159
350 349 348 350 352 351 349 348 346 344 343 341 340 338 337 335 334 332 332 331 330 331 330 329 327 324 330 336 325 318 333 330 282 274 325 349 6 162 178 191 203 207 203 203 207 205 208 205 186 197 205 223 227 229 239 222 210 241 224 232 246 238 223 238 220 175 174 184 164 159 149 154 161 152 156 156 161 169 165 163 152 150 153 152 151 153 159 161
349 349 351 352 351 350 348 346 344 343 341 340 339 337 335 333 332 331 330 329 329 330 329 329 325 324 331 334 327 296 238 264 287 287 324 2 24 131 171 183 197 205 203 205 212 209 216 216 203 206 207 225 218 219 238 217 199 235 246 240 243 239 227 233 218 171 171 179 162 158 153 158 158 156 163 165 171 164 157 155 151 151 151 150 151 155 163 164
349 349 351 352 351 348 346 345 343 341 340 339 337 335 334 332 331 329 328 327 328 329 328 327 323 323 333 354 80 234 130 251 271 268 248 287 331 141 166 179 191 199 201 201 207 213 219 213 214 215 217 230 220 226 241 223 207 225 245 250 246 240 230 219 200 171 174 176 166 159 149 160 164 160 166 164 149 144 148 148 146 147 146 149 153 159 166 166
347 347 350 351 348 346 345 343 341 340 338 337 335 334 333 331 329 327 326 326 325 326 326 324 320 323 337 20 167 311 226 253 269 276 261 261 260 200 172 178 188 192 193 197 202 205 209 216 219 215 221 232 227 234 245 243 235 232 243 256 253 243 230 213 189 172 174 175 164 154 154 173 171 153 158 147 132 140 143 141 143 144 147 151 158 162 165 168
343 344 348 348 347 345 343 341 340 338 336 335 333 331 330 328 327 325 325 324 323 324 323 321 317 320 337 268 216 329 250 261 287 300 281 266 247 215 189 183 189 188 190 201 204 200 201 213 219 217 231 241 246 253 254 255 243 233 248 262 265 256 233 205 187 180 173 168 157 150 161 175 145 119 138 139 136 141 139 140 145 147 153 155 160 165 166 170
342 344 347 347 346 344 342 341 339 336 335 333 330 329 328 326 325 323 323 323 322 321 319 315 312 316 314 231 156 212 261 278 321 328 305 277 237 216 201 191 188 186 189 200 201 199 205 215 217 228 261 262 253 256 258 251 259 276 280 281 278 273 250 187 181 189 167 166 163 151 164 155 119 109 122 143 139 140 141 145 150 152 158 159 162 167 168 173
345 347 346 346 345 343 341 340 338 336 333 330 328 326 324 323 322 322 322 322 320 318 313 308 305 293 214 235 159 227 260 259 302 354 346 302 223 213 209 201 191 188 192 193 202 206 209 226 232 253 276 266 256 263 267 258 276 291 287 292 282 277 274 194 178 184 163 174 169 145 147 133 119 127 143 152 144 144 147 149 155 158 161 162 164 168 171 177
345 347 346 345 343 342 341 339 338 335 332 330 327 324 321 320 320 320 321 319 317 314 306 298 287 182 184 264 217 235 236 218 270 301 316 302 226 220 218 209 202 198 197 190 208 212 212 227 230 229 257 281 292 270 271 272 291 291 284 298 286 289 295 223 174 177 174 173 155 129 125 128 135 143 147 152 148 149 150 153 159 160 162 163 166 169 173 180
343 346 346 345 343 342 341 339 337 335 332 330 327 323 319 317 317 319 319 315 311 306 296 282 230 157 156 244 234 247 254 262 280 283 279 274 241 232 224 215 214 211 207 203 213 217 217 224 220 226 252 268 280 273 291 299 318 303 294 291 289 315 300 236 164 175 178 162 151 133 140 176 150 148 150 152 151 151 153 157 162 161 163 165 168 171 175 181
342 344 345 345 344 342 341 339 337 335 332 330 327 323 317 315 316 318 314 307 303 291 273 242 166 143 169 258 265 271 275 276 276 272 263 251 237 236 233 225 218 215 213 214 220 221 219 221 219 229 250 240 252 286 303 304 323 311 312 304 291 319 279 264 162 171 173 167 158 133 155 196 151 152 155 155 154 154 157 162 163 163 165 167 170 171 176 185
343 344 345 346 344 342 341 339 338 335 333 331 327 321 317 317 317 314 307 298 287 230 197 152 158 146 277 274 282 288 285 275 261 255 249 232 221 230 235 232 223 216 215 217 225 228 221 217 216 230 254 244 241 274 290 299 319 300 302 299 298 236 272 290 171 169 162 170 165 125 141 179 150 158 159 156 158 156 159 164 165 165 167 169 172 173 180 187
343 345 346 346 344 343 341 339 338 336 335 332 327 321 318 320 318 312 302 281 204 183 161 139 175 173 305 274 289 298 276 245 245 248 241 218 207 211 224 229 226 215 210 215 224 232 230 212 203 218 236 254 236 235 273 302 311 316 182 258 280 261 275 306 184 169 151 156 173 136 147 167 153 162 160 159 161 159 160 165 167 167 168 171 172 175 182 184
344 345 346 346 344 343 341 339 338 338 336 331 328 324 323 329 328 334 47 109 127 162 154 127 165 175 261 273 296 298 250 231 243 250 243 222 207 207 215 218 217 207 202 212 219 226 233 207 189 211 219 238 220 187 226 258 265 287 227 235 261 255 264 290 248 177 153 155 172 155 157 164 158 162 162 163 163 162 163 165 168 169 170 174 173 177 183 184
346 346 346 346 344 342 341 339 337 339 337 331 331 329 328 353 47 82 97 104 93 119 158 156 149 165 257 253 263 269 252 260 271 254 240 226 209 210 214 205 196 198 199 215 218 212 220 208 179 208 226 220 209 184 200 225 219 228 228 229 261 256 255 260 241 173 163 162 166 159 160 157 157 162 165 167 167 165 168 167 169 170 171 174 174 179 183 186
347 347 347 345 343 342 340 338 337 340 338 332 338 339 341 32 60 98 111 115 93 87 247 234 176 190 279 259 241 251 289 304 298 268 230 215 204 206 214 222 201 186 185 199 216 202 190 211 205 215 227 213 211 199 207 225 212 218 226 222 250 261 259 251 234 177 172 167 167 163 162 157 159 166 168 170 170 168 169 168 169 172 172 174 176 181 184 188
346 346 346 345 342 340 339 338 337 340 342 342 345 349 10 19 17 83 96 168 219 241 251 236 206 233 277 288 277 284 312 303 291 260 222 204 186 185 206 222 204 192 191 184 202 197 171 204 226 218 217 210 216 211 211 228 231 237 244 242 248 258 265 258 248 198 178 167 180 171 162 163 165 169 169 170 170 168 170 169 171 174 173 175 178 181 185 191
343 344 346 345 341 338 337 337 337 339 346 349 349 354 353 345 343 320 315 281 244 230 243 245 227 238 247 260 271 283 326 313 294 289 247 209 176 161 189 200 200 209 198 184 194 192 178 209 226 219 214 209 218 223 216 225 236 243 244 251 258 250 258 267 270 219 188 168 189 174 159 169 172 171 169 168 169 172 174 173 174 177 177 178 179 182 186 190
342 344 344 343 342 338 335 336 338 341 350 351 350 351 293 328 333 324 314 291 268 226 233 246 236 246 243 241 255 261 295 287 286 297 264 203 175 167 181 188 199 207 193 189 192 198 206 219 221 210 207 211 222 230 224 227 234 241 242 248 258 249 259 278 282 231 200 173 182 175 163 174 178 174 169 168 173 178 178 177 176 177 178 180 181 184 185 186
343 344 343 343 343 338 334 335 337 343 350 344 330 300 326 332 337 337 330 295 287 239 219 235 228 240 241 236 244 238 224 246 259 276 255 195 178 175 174 184 194 200 201 200 196 201 212 218 212 199 197 208 222 229 226 232 232 235 237 233 248 248 242 268 278 230 209 200 178 177 169 173 179 176 174 174 176 179 180 180 178 177 178 181 184 184 182 183
343 344 344 343 342 339 335 335 338 345 343 338 312 311 339 336 341 346 342 269 287 260 217 226 217 226 233 225 211 196 206 222 218 253 253 196 173 166 171 182 184 199 213 209 206 213 217 203 201 199 199 206 217 227 223 224 232 235 234 227 239 246 226 227 267 258 222 235 184 166 145 168 184 176 182 183 177 177 180 181 181 182 183 181 183 184 182 184
343 343 343 343 343 339 335 335 345 342 337 335 327 339 342 341 345 345 338 250 286 270 221 222 208 226 226 203 173 170 193 219 209 228 237 192 178 166 175 184 177 202 212 210 210 219 225 206 193 201 206 207 212 224 222 215 221 239 238 232 234 241 238 238 260 288 233 255 207 156 142 257 225 184 183 184 179 178 178 182 183 186 187 184 184 187 187 187
343 342 342 342 342 339 340 343 336 335 332 327 339 338 338 342 345 339 332 233 290 255 192 192 179 204 196 177 169 141 152 221 212 218 229 222 197 172 173 183 177 205 202 203 215 222 220 206 200 205 205 208 211 218 223 213 210 235 232 233 240 240 244 251 257 261 207 242 225 174 172 217 237 204 190 180 183 184 179 183 186 185 187 188 187 188 188 190
342 341 339 340 340 341 342 316 320 330 324 310 331 334 335 338 338 333 333 23 296 212 166 169 177 182 170 165 160 138 159 200 176 210 219 220 209 171 175 187 177 202 187 184 219 205 191 198 210 214 207 211 212 214 219 206 209 234 213 215 245 244 239 247 253 245 216 248 260 215 193 169 192 211 198 180 182 186 183 186 188 187 189 191 191 189 189 189
340 339 338 337 336 336 329 301 315 317 298 317 330 331 331 332 331 332 103 328 298 164 151 189 192 175 156 152 158 163 220 161 149 207 205 207 212 170 184 200 188 195 181 183 215 197 177 194 206 212 214 216 210 213 214 201 216 240 207 203 237 245 243 243 246 248 220 221 257 242 200 191 221 212 199 187 183 187 192 192 191 190 189 191 191 190 190 190
338 337 336 334 331 332 332 306 293 294 315 331 332 327 326 323 321 38 112 264 273 323 128 157 176 161 133 145 172 201 239 162 186 196 178 196 213 201 202 201 190 197 196 201 217 204 189 198 200 206 219 219 207 215 214 203 219 228 199 212 235 241 248 245 239 246 221 200 231 221 184 210 268 214 188 194 191 194 199 198 195 192 190 190 191 191 190 190
337 334 332 333 329 327 329 308 286 300 337 330 324 324 323 316 330 108 221 239 283 288 195 133 186 151 138 146 188 221 223 246 291 144 157 186 204 210 211 179 186 202 205 215 225 222 220 212 197 202 217 213 197 209 216 210 217 215 188 210 241 245 251 259 241 224 219 225 231 213 189 195 244 228 186 192 195 195 197 200 199 193 191 191 191 191 190 189
335 332 330 328 323 320 321 301 293 316 322 319 326 328 327 327 102 158 224 232 327 262 196 358 202 145 155 163 183 210 217 260 287 138 161 178 190 201 188 172 193 202 214 225 231 231 234 235 221 208 208 205 197 205 216 211 213 216 192 190 227 256 268 276 264 207 217 242 239 214 195 193 218 235 202 204 201 194 193 196 196 195 194 193 192 191 189 188
334 332 327 322 319 313 293 282 299 310 313 325 335 329 360 111 228 219 240 344 335 227 125 350 339 120 182 189 176 189 196 224 221 168 167 181 193 199 194 192 186 192 215 217 216 226 233 235 235 236 216 203 198 204 216 212 209 210 195 174 195 223 243 240 241 227 220 243 242 204 192 197 215 217 198 204 206 200 197 195 194 195 194 192 192 192 190 187
332 331 325 318 316 307 291 294 304 307 315 333 333 324 87 189 236 198 223 279 288 247 38 359 339 343 255 228 213 193 189 207 213 189 178 187 194 203 207 204 187 191 203 196 201 214 246 250 234 234 236 212 202 199 207 212 205 204 194 175 187 197 209 221 233 245 227 245 244 198 189 203 222 218 199 199 201 199 197 197 196 195 193 193 192 191 190 188
331 331 324 315 313 310 306 311 310 300 307 323 339 66 142 228 239 163 206 244 283 309 2 355 331 327 301 255 230 193 188 221 215 188 180 185 192 207 210 205 197 192 155 157 197 200 219 245 223 218 219 204 209 206 194 186 190 207 193 163 188 195 190 203 208 210 219 248 256 200 187 195 198 209 201 200 203 196 194 200 197 195 193 192 192 190 189 189
331 330 323 313 314 320 326 333 323 289 266 305 43 125 207 217 261 336 218 241 291 312 339 348 326 299 296 274 239 205 190 214 212 197 192 185 193 201 201 203 198 187 167 179 200 195 214 237 231 224 220 202 211 206 180 168 183 209 185 162 201 192 170 199 203 186 176 222 252 210 196 209 208 215 201 198 203 197 197 200 193 195 197 191 191 191 188 189
334 333 325 311 317 335 347 348 328 241 183 123 104 208 225 227 278 268 305 344 354 340 338 345 357 304 293 277 268 236 201 202 203 205 212 196 199 199 197 203 195 192 189 188 199 178 202 238 234 226 235 221 217 207 184 180 180 204 197 194 197 152 154 218 255 237 149 201 241 223 229 273 277 250 219 201 201 199 200 197 191 196 197 191 192 193 190 190
337 336 318 303 320 358 8 354 331 210 169 112 188 221 242 244 284 295 320 330 344 358 345 343 360 336 301 284 322 324 274 228 195 195 210 202 201 194 196 204 196 197 194 181 211 190 175 246 237 215 234 234 221 221 219 198 167 170 203 203 163 120 153 181 211 249 221 222 255 231 222 245 226 247 248 203 201 202 197 193 195 198 196 193 196 196 192 190
334 327 303 296 330 3 349 344 332 197 165 189 218 239 269 248 306 315 319 321 323 335 333 299 275 288 289 302 328 342 338 322 212 211 218 208 210 190 191 201 197 199 194 182 207 214 177 253 263 216 222 230 219 217 232 228 195 183 190 187 169 167 187 185 178 207 214 219 268 254 230 218 196 224 230 199 204 207 198 192 195 197 196 198 200 198 195 190
337 327 297 298 346 344 337 338 329 193 172 217 215 231 258 253 283 292 299 307 308 306 293 243 240 268 292 311 314 321 330 324 310 309 255 212 220 192 185 189 193 197 194 186 196 212 182 221 264 234 217 216 214 205 215 232 220 202 189 183 181 178 190 201 188 178 190 207 238 244 241 238 219 208 200 202 207 207 199 193 193 195 197 200 201 198 195 191
343 328 278 296 333 335 335 335 310 183 191 223 217 226 254 267 276 281 292 297 299 300 294 292 294 291 298 303 300 302 308 300 298 304 289 261 257 208 189 185 183 188 194 194 197 202 186 195 232 269 242 212 210 205 196 204 211 207 203 202 202 185 178 203 208 164 157 178 203 210 229 255 248 202 189 202 210 207 200 191 193 199 199 199 199 196 192 191
330 324 267 307 333 336 337 341 206 169 222 235 232 239 247 262 271 272 280 282 281 270 273 285 283 280 292 295 291 292 295 293 280 270 275 274 276 263 200 187 177 176 190 200 199 196 195 195 210 247 258 224 222 214 188 191 199 200 206 207 198 185 150 180 239 276 147 173 184 185 228 259 255 205 189 202 207 205 200 195 196 200 200 198 198 196 192 189
305 273 277 308 331 335 336 351 318 320 261 252 261 256 246 245 255 257 260 267 271 267 271 277 272 271 277 272 276 286 286 289 281 269 269 268 277 291 284 243 196 177 179 198 203 196 186 182 204 227 243 235 231 230 201 197 197 196 207 206 188 185 164 170 220 262 230 212 186 167 232 263 256 212 191 204 210 204 199 198 199 199 198 197 195 194 192 189
290 287 287 306 329 334 333 338 308 314 301 291 293 282 266 257 261 268 266 264 266 265 269 274 278 283 280 270 274 274 274 280 268 262 266 265 274 277 293 344 337 209 188 193 198 192 188 191 201 221 248 255 248 263 257 213 200 199 208 200 188 191 177 169 183 174 197 225 194 197 240 260 266 235 200 203 212 215 215 205 201 200 194 194 194 191 189 190
295 287 287 309 329 331 323 329 319 330 325 313 316 315 302 286 277 280 277 278 288 288 283 291 296 295 296 304 303 289 289 285 256 262 276 267 282 292 318 7 358 311 235 213 187 178 192 195 180 187 222 245 250 263 270 233 213 209 200 195 201 192 166 159 167 159 221 220 172 190 237 250 263 242 222 217 187 207 236 225 206 203 194 191 192 189 189 193
301 280 262 306 324 327 329 14 350 349 339 334 336 334 327 314 303 309 310 304 305 301 295 301 309 312 323 343 339 326 327 325 307 328 328 314 316 325 345 358 350 327 313 310 238 189 195 190 181 192 203 213 222 227 223 208 210 223 197 191 201 196 181 173 157 181 227 218 161 180 231 263 278 231 222 242 242 220 233 225 204 201 195 188 188 189 193 196
315 304 283 313 326 321 322 354 17 10 342 337 336 329 330 328 320 322 325 319 305 303 306 307 311 321 342 353 340 326 339 340 328 335 338 327 322 321 332 336 332 324 327 333 337 248 208 197 197 202 206 208 207 218 211 166 179 215 206 190 197 201 194 180 169 195 196 179 202 208 187 239 276 229 207 238 249 230 202 202 198 197 190 183 188 195 197 196
279 287 305 331 331 323 339 356 13 359 331 325 323 313 320 323 318 318 321 321 316 315 312 300 302 320 342 349 337 321 337 333 320 332 344 324 317 314 318 323 331 342 341 342 348 338 246 222 207 201 208 210 201 211 217 178 187 203 201 195 199 201 194 186 199 201 151 158 230 231 173 202 255 240 209 230 239 220 197 198 193 191 188 184 193 199 198 196
259 274 311 323 306 313 333 327 326 329 324 322 314 298 310 319 324 329 327 326 327 327 319 287 300 345 352 348 339 326 339 333 312 338 357 331 326 331 330 329 348 359 357 346 338 342 276 247 214 199 208 209 201 212 217 198 196 204 199 196 198 199 197 198 204 186 156 181 220 203 179 201 235 244 236 237 228 202 205 208 195 193 190 183 189 195 195 195
277 268 293 318 298 293 302 301 308 316 319 325 311 290 311 326 327 328 330 334 331 330 334 321 330 3 356 342 344 333 333 333 317 338 354 331 329 333 327 323 334 2 359 338 325 338 305 278 232 201 206 207 201 211 216 204 187 202 209 202 196 198 200 203 205 188 180 199 198 176 190 210 222 224 231 243 236 210 202 200 202 213 195 175 175 188 195 197
273 289 301 324 300 281 283 291 306 312 310 313 297 286 311 322 322 327 335 332 314 308 335 329 320 334 331 317 326 312 301 310 306 311 321 316 321 324 310 312 317 328 337 326 316 343 351 297 265 209 200 207 204 205 215 214 190 187 221 218 204 201 200 203 207 192 183 202 190 180 202 227 241 229 227 242 244 231 170 160 180 205 193 175 175 185 196 199
258 282 288 295 291 289 293 298 306 304 299 303 295 302 316 310 313 326 322 298 284 293 320 319 308 316 315 299 296 286 281 281 277 285 293 287 286 288 282 288 297 305 315 311 305 321 328 307 304 254 203 210 204 198 211 221 210 203 222 221 205 199 200 202 201 188 183 190 183 181 202 231 250 245 240 232 208 194 184 172 178 187 181 182 188 188 193 196
278 272 217 245 287 290 289 292 297 295 291 299 304 307 306 298 303 321 314 292 289 301 311 307 298 304 305 292 286 280 277 275 274 278 277 266 263 262 259 261 265 271 283 292 293 293 284 308 328 304 234 214 199 197 206 213 221 229 220 202 193 189 194 209 217 212 204 187 180 197 210 214 221 225 224 213 198 201 204 191 185 186 182 185 191 190 190 189